Location: Ravensburg
(47.7866°N, 9.6124°E)
Time: 03:27:13
(UTC+02:00)

Gurwin Techsat 1B - Pass Details

Date: 22 March 2026
Orbit: 809 x 812 km, 99.0° (Epoch: 14 April)

Event Time Altitude Azimuth Distance (km) Brightness Sun altitude
Rises 05:38:48 0° 15° (NNE) 3,341 12.2 -7.8°
Reaches altitude 10° 05:41:09 10° 16° (NNE) 2,405 11.4 -7.5°
Maximum altitude 05:46:29 85° 106° (ESE) 819 8.7 -6.6°
Drops below altitude 10° 05:51:46 10° 195° (SSW) 2,388 10.8 -5.7°
Sets 05:54:06 0° 196° (SSW) 3,315 11.6 -5.3°
